Theta_e
312 311 312 310 312 300 308 310 305 306 313 310 305 306 309 308 305 303 317 314 318 323 325 328 330 328 329 331 331 331 331 333 335 335 333 333 335 336 338 338 339 341 343 346 347 349 349 349 349 350 353 354 356 356 357 357 358 359 359 361 359 360 361
315 318 316 315 314 312 313 304 307 313 318 315 308 300 308 307 301 306 312 308 311 314 309 327 328 327 328 329 329 329 331 333 333 334 333 334 334 336 341 341 342 343 344 346 346 348 348 348 348 350 354 355 356 356 357 356 357 358 357 358 358 359 360
319 320 319 314 317 317 311 308 320 308 304 302 307 306 298 300 300 302 309 311 311 312 313 321 323 325 327 329 330 329 329 331 331 333 333 335 335 336 339 340 341 341 343 346 347 348 350 351 352 352 354 354 355 355 355 355 355 357 356 356 357 358 360
313 316 315 307 309 315 317 318 313 318 313 307 307 308 311 308 301 300 304 309 308 316 320 323 324 328 330 329 329 329 329 330 331 332 333 334 335 336 338 340 341 342 343 345 347 347 349 351 350 350 352 353 353 354 355 355 356 358 359 358 358 357 357
313 311 313 309 312 310 310 309 308 313 311 318 314 315 308 307 304 302 298 300 310 320 326 326 328 330 332 331 330 330 330 331 333 333 333 334 335 335 338 339 340 342 344 344 345 348 350 352 352 350 351 353 353 353 353 354 355 355 356 357 359 359 359
310 307 316 314 316 315 313 308 308 311 311 307 302 303 312 310 306 298 300 299 311 323 329 329 328 332 333 334 332 332 334 333 333 333 334 334 334 337 339 338 339 341 344 344 345 348 350 351 351 349 350 352 353 354 356 356 357 358 358 356 358 360 362
304 307 315 315 317 318 316 314 310 315 314 312 307 299 306 310 309 309 308 304 307 327 330 331 331 333 335 335 334 333 335 335 334 334 335 337 337 336 336 338 338 340 343 344 344 348 351 352 353 352 353 354 355 357 358 358 356 358 359 359 358 362 362
308 310 312 316 317 319 314 314 315 313 311 312 311 310 312 308 307 303 304 302 311 326 332 332 333 336 334 337 336 336 336 337 337 336 336 336 337 338 338 338 338 341 343 345 345 348 351 354 354 354 355 357 358 358 360 360 358 359 359 358 359 361 362
303 305 309 311 315 315 310 310 315 315 315 312 312 313 314 306 307 305 304 301 307 325 331 330 332 335 334 335 336 337 335 337 337 337 336 337 337 338 337 337 338 341 342 344 346 349 354 355 354 356 357 359 361 361 362 362 361 360 359 360 359 361 362
292 292 293 297 303 309 311 315 314 316 315 312 309 305 307 300 308 307 303 305 316 326 328 328 331 332 333 334 336 338 339 336 333 335 339 337 338 338 337 338 338 340 344 347 348 352 355 354 354 357 359 359 362 363 363 364 363 361 361 362 361 362 364
299 301 309 309 313 312 308 312 314 314 315 315 312 310 308 303 307 305 309 311 312 317 325 324 326 329 330 331 333 333 335 335 336 335 336 338 337 338 337 338 339 343 346 348 351 354 355 355 353 357 359 360 362 363 364 363 366 364 364 365 364 363 363
308 308 311 313 313 311 312 311 311 314 315 314 310 307 306 311 305 301 314 317 309 321 323 324 326 329 330 331 333 333 335 336 338 335 336 336 338 338 339 340 342 344 346 348 351 353 354 354 353 356 359 359 361 363 363 363 365 365 365 366 366 366 366
312 314 313 313 313 312 313 312 312 312 314 315 309 308 310 310 305 302 316 320 319 322 323 325 327 329 330 331 335 336 338 340 340 338 337 338 337 338 338 340 343 344 346 349 351 352 353 353 352 354 356 358 361 363 365 365 365 367 368 368 368 368 367
311 314 314 313 310 308 311 312 314 315 314 314 315 313 313 312 311 311 312 316 322 324 326 327 329 332 333 334 338 338 336 336 335 337 337 336 337 337 339 342 344 347 347 348 351 352 353 353 353 351 353 357 359 360 362 364 366 368 369 369 369 368 367
308 312 311 312 311 312 308 310 314 315 316 315 316 317 316 316 314 312 312 318 320 326 330 329 331 332 333 334 333 334 334 334 336 336 337 338 339 341 343 343 344 348 349 350 350 351 352 352 353 354 356 357 358 359 359 362 366 369 370 369 368 368 368
303 308 310 311 311 311 312 312 314 314 314 313 313 314 318 315 312 314 316 318 319 326 331 330 330 329 329 329 331 333 334 334 333 335 334 334 336 337 340 343 345 346 346 348 348 351 353 354 353 353 355 356 357 357 359 361 362 364 365 365 366 367 368
300 307 312 309 307 308 304 310 312 314 314 315 314 315 317 318 316 311 309 314 328 328 329 326 326 327 327 327 329 331 333 335 334 335 335 333 334 335 337 338 340 342 343 343 346 350 352 352 354 357 358 356 357 359 359 360 362 362 362 361 363 364 366
301 304 307 306 302 295 299 315 318 316 314 313 312 310 310 313 315 312 317 326 328 328 327 325 325 325 325 327 329 332 332 332 333 334 335 334 335 335 336 337 340 341 342 342 344 348 349 352 354 355 357 357 358 360 360 362 361 362 363 363 363 362 363
301 306 304 299 294 295 311 319 320 319 318 317 315 315 316 316 318 316 319 325 326 325 326 325 325 326 328 329 329 330 332 333 332 331 332 333 332 332 334 335 335 337 340 342 344 347 348 348 352 353 354 356 357 359 360 358 359 361 362 362 361 361 361
304 300 299 291 296 308 314 315 317 318 318 317 316 315 318 318 318 317 317 320 324 325 324 326 327 326 327 327 328 329 330 331 331 330 330 331 331 330 332 333 334 336 337 339 341 344 347 348 350 349 351 355 357 357 358 357 357 358 358 358 358 360 359
297 299 299 299 307 307 310 312 313 315 314 315 313 308 311 319 318 317 316 322 324 325 327 328 327 328 327 323 323 327 328 329 330 331 332 332 332 332 332 334 333 336 338 339 341 343 345 348 349 350 351 351 353 355 356 356 358 357 358 357 358 358 358
304 299 298 300 299 296 305 314 315 318 318 317 317 316 313 320 319 322 319 321 326 326 326 327 328 328 323 318 318 325 327 329 330 332 332 333 332 332 333 334 336 336 338 340 342 343 344 345 346 347 348 348 348 348 349 353 356 356 357 356 357 357 358
301 300 296 297 295 301 311 313 315 317 319 317 318 314 309 320 318 319 319 319 325 327 327 328 328 325 317 314 318 324 327 328 329 329 331 332 332 332 332 333 333 335 336 337 338 340 341 342 345 347 348 347 347 346 351 352 353 354 354 356 356 354 355
301 300 297 297 303 305 312 315 316 317 319 317 314 299 302 318 319 320 321 319 321 323 327 327 326 324 316 315 319 326 327 328 329 330 329 329 330 332 333 333 333 334 335 335 334 335 337 339 343 345 344 342 342 341 339 342 343 346 350 350 350 348 350
301 299 299 301 305 313 316 316 317 318 318 314 302 296 308 320 321 322 323 322 323 325 325 327 321 324 326 325 327 328 328 327 328 330 330 329 330 330 332 332 334 332 332 332 332 334 335 337 338 338 337 336 334 333 332 334 335 339 342 345 346 350 350
299 301 298 300 306 315 319 318 317 319 313 301 300 316 323 324 322 324 325 323 325 325 324 323 323 324 326 327 327 327 327 327 328 328 328 328 329 331 333 333 332 332 331 332 333 334 337 336 336 336 336 334 332 331 329 329 332 336 340 344 346 345 346
303 303 299 297 292 311 319 317 315 317 308 312 320 323 325 327 325 325 326 326 325 326 321 323 324 324 325 326 327 327 327 327 328 328 328 327 327 327 328 328 331 331 329 328 328 329 332 335 337 336 335 333 333 331 328 330 333 336 338 339 340 341 342
300 298 297 296 312 318 320 318 313 314 323 325 326 325 322 326 326 325 325 327 328 325 323 322 323 322 322 323 325 326 326 326 328 330 330 330 329 328 328 327 328 329 327 326 326 328 329 333 335 335 333 331 331 330 330 333 335 336 336 336 336 335 334
306 306 313 318 321 321 322 324 324 326 327 329 329 327 326 325 325 328 326 326 328 327 325 324 324 320 320 319 321 321 321 321 322 325 328 330 330 328 327 326 327 327 327 326 325 326 328 331 334 334 333 331 331 329 333 336 335 336 337 336 336 335 335
318 320 322 322 322 323 323 326 327 327 327 329 330 328 326 327 327 329 327 327 327 327 327 324 322 320 319 318 318 318 319 320 322 323 323 325 328 328 327 326 326 325 326 328 327 327 327 328 330 332 333 333 331 331 333 334 335 336 336 336 334 334 335
310 305 320 320 321 322 325 324 327 328 330 329 330 330 329 329 329 329 329 329 329 329 328 325 322 322 323 321 321 321 321 319 319 319 320 323 323 323 324 326 327 325 324 324 326 327 327 328 329 329 329 329 331 335 335 333 333 334 334 334 335 335 335
312 315 319 322 324 325 326 327 326 326 329 330 331 331 331 332 332 332 331 332 330 331 327 325 323 322 323 322 321 320 320 321 322 322 322 324 325 327 328 328 327 326 326 326 326 326 325 327 329 330 330 331 332 332 332 335 337 337 336 333 331 332 333
316 320 321 321 323 324 325 327 329 330 330 330 329 330 330 331 330 330 331 332 330 330 328 326 325 324 326 327 326 324 324 324 325 326 326 326 326 326 328 329 329 328 328 328 328 326 326 328 330 331 331 330 331 333 333 336 338 337 336 336 335 332 332
308 310 316 320 313 313 320 326 328 329 330 330 329 329 329 329 329 329 328 328 329 329 328 327 326 325 325 327 328 326 325 325 326 327 327 326 326 327 329 329 330 330 330 330 330 329 329 331 331 331 331 332 332 332 335 336 337 337 337 336 335 334 335
308 316 322 324 324 321 323 327 330 330 331 331 329 328 329 330 331 330 329 326 327 327 327 328 327 327 327 327 328 326 326 328 328 327 327 326 326 327 328 329 330 330 330 330 331 330 330 330 330 331 332 332 333 332 334 335 336 336 336 334 334 333 334
319 322 324 324 322 320 324 328 330 330 332 331 330 331 331 331 330 331 330 329 328 327 326 327 328 329 329 329 328 327 327 329 330 329 328 329 329 328 328 329 330 330 329 330 330 331 332 332 330 331 330 331 333 333 334 333 335 337 336 334 332 331 331
317 325 325 324 324 325 328 329 330 331 332 332 329 330 332 331 331 331 329 328 329 328 328 328 329 330 329 329 329 328 328 328 330 330 330 329 329 328 328 328 328 328 329 330 331 332 332 332 331 331 330 331 333 332 335 334 334 335 335 335 334 333 333
Wind_Speed
9 9 9 10 7 8 6 9 10 9 1 7 8 8 8 6 6 7 4 5 5 3 5 2 2 4 6 10 12 13 12 12 15 15 15 16 15 15 15 14 13 14 14 14 13 13 13 13 13 13 13 13 14 13 13 14 14 13 14 13 13 11 11
6 7 7 8 12 10 2 8 8 5 2 4 6 7 4 6 6 2 2 4 2 4 2 2 3 5 8 10 11 13 14 13 14 13 13 15 16 15 15 15 14 14 13 14 13 13 14 13 14 15 14 14 13 13 14 15 14 14 14 14 13 12 12
4 5 7 8 7 8 9 3 2 8 9 9 7 6 7 8 7 4 4 4 2 2 4 2 4 3 6 10 11 11 12 14 14 14 14 14 15 15 14 15 14 14 14 14 14 13 13 14 14 14 15 14 13 13 13 14 15 15 15 13 13 11 12
10 5 7 8 9 8 6 3 6 4 4 7 7 6 3 3 1 2 5 4 3 3 5 5 2 1 4 9 13 15 16 15 13 13 14 15 16 15 14 15 14 14 15 15 15 15 14 14 14 13 14 13 14 14 14 13 14 13 13 13 12 12 12
6 6 6 8 7 8 7 8 6 3 7 2 4 3 7 4 2 3 3 3 3 4 3 5 5 3 3 6 10 12 14 15 14 14 13 13 14 15 15 14 14 15 15 15 15 14 14 14 13 13 13 13 13 13 13 14 14 14 14 13 12 11 10
6 4 5 10 5 6 6 7 5 8 6 6 9 7 7 4 3 1 2 7 6 4 4 5 5 4 3 6 9 11 14 15 13 11 14 13 13 14 14 15 15 14 14 15 14 13 12 12 12 13 13 13 13 12 11 12 12 11 12 13 12 11 10
3 3 7 6 3 2 1 5 4 10 3 8 9 6 6 4 0 2 5 6 4 2 5 5 6 5 2 3 8 9 11 13 13 10 9 9 11 11 12 15 15 14 14 14 14 14 14 13 13 13 12 11 11 12 12 11 12 12 11 11 11 10 10
4 4 3 1 1 6 3 1 7 4 3 2 7 5 4 2 3 3 3 7 2 3 6 6 5 4 2 3 5 8 9 11 11 9 7 8 8 7 10 11 12 12 13 13 12 13 13 12 12 13 11 11 12 12 12 11 13 13 12 11 10 10 10
5 5 4 4 7 5 3 6 4 2 3 6 3 4 2 7 4 9 9 6 1 4 2 5 5 6 7 6 6 7 8 9 10 8 6 7 8 8 8 9 10 12 13 13 12 12 12 12 12 12 12 11 11 11 12 12 12 12 12 11 11 11 11
9 9 6 6 8 8 6 4 3 4 2 5 6 7 6 7 2 3 6 4 4 3 6 5 6 6 7 7 6 5 6 8 9 10 7 6 8 9 9 9 10 11 10 10 12 12 12 12 12 12 12 12 11 12 13 12 11 11 11 10 10 10 10
4 7 3 8 10 3 6 5 3 3 4 2 7 8 5 7 1 5 7 8 4 4 5 6 5 6 7 7 6 5 3 6 10 11 11 8 8 9 11 11 10 9 9 10 11 12 12 12 13 12 12 12 12 12 12 12 11 11 10 10 11 10 11
5 4 2 2 1 2 1 2 3 3 3 5 9 11 7 2 3 6 3 4 7 4 5 3 6 6 7 8 7 5 2 1 3 11 11 13 11 9 8 10 10 11 11 11 11 11 11 11 12 11 11 12 12 12 12 12 11 11 10 10 11 11 10
6 7 3 2 2 1 3 4 3 2 2 4 8 11 9 3 6 7 5 7 0 4 5 3 4 4 6 6 6 6 5 4 2 6 11 12 14 11 10 9 9 9 9 7 8 9 8 9 10 10 9 10 10 10 10 11 10 11 11 11 11 11 11
2 3 3 2 2 1 4 1 3 3 1 1 3 5 11 6 9 12 9 7 2 5 4 5 5 4 6 6 6 7 8 8 7 2 8 9 10 11 10 8 6 6 7 7 6 5 5 6 7 7 8 8 8 8 9 10 11 11 11 11 11 11 11
5 4 4 3 1 3 0 2 2 4 5 2 3 3 4 7 10 13 14 7 5 4 3 5 7 7 7 7 8 8 9 7 7 9 11 10 11 10 9 8 7 6 5 4 3 3 4 5 6 6 6 6 7 8 8 8 8 8 9 10 10 11 11
2 7 6 5 4 2 3 4 3 5 4 2 5 2 5 3 5 10 11 10 6 6 5 9 10 11 12 11 9 8 7 8 8 7 8 9 9 10 9 10 9 9 8 7 6 5 3 2 3 5 6 6 7 8 8 9 9 8 8 7 8 9 9
5 4 7 6 7 1 6 2 4 3 3 3 2 1 3 3 7 6 9 8 7 9 8 10 10 11 11 11 9 9 10 8 7 7 8 7 7 9 8 8 9 8 7 7 6 6 5 2 2 3 3 5 7 7 8 8 8 9 10 10 9 8 7
3 8 6 7 6 7 1 6 5 5 3 3 2 3 5 7 4 3 12 2 8 10 9 11 11 11 11 10 11 10 8 8 9 9 9 8 6 6 7 7 7 7 7 6 4 4 3 3 3 2 2 5 6 7 8 8 10 9 9 9 9 9 8
2 2 6 6 10 2 1 4 2 2 3 1 2 3 4 4 6 9 9 7 9 11 12 12 14 14 13 13 13 12 11 10 9 9 9 9 9 6 6 7 6 6 6 5 4 3 4 4 2 2 1 3 5 6 7 8 9 9 9 9 9 8 8
1 5 3 8 4 3 2 3 1 4 2 1 3 2 2 3 4 3 6 9 8 10 13 9 11 12 12 13 13 12 12 10 10 9 8 8 8 9 8 7 6 5 6 6 5 4 2 3 3 1 1 3 3 5 6 7 8 9 8 9 9 8 8
6 4 5 3 4 5 3 5 3 1 1 2 2 2 2 2 3 2 3 7 9 10 10 10 9 9 10 11 10 10 9 9 10 10 8 8 8 8 7 6 5 6 7 6 5 3 2 2 3 2 1 1 3 3 2 4 6 7 7 7 6 7 6
4 5 4 3 4 6 3 3 8 4 6 7 5 3 1 1 3 4 8 2 8 11 8 9 9 7 8 8 7 8 7 8 9 10 10 9 9 8 8 7 6 8 7 5 4 4 4 4 4 3 1 0 1 1 2 1 1 4 5 5 6 7 7
4 5 6 3 4 4 4 6 5 7 6 6 4 1 1 4 4 6 9 10 1 5 2 6 8 6 5 5 5 5 6 8 8 9 10 9 9 10 10 10 10 9 7 8 8 9 9 8 5 4 4 4 2 1 1 1 3 3 3 4 5 5 2
5 5 5 4 2 3 6 6 4 5 5 6 3 2 3 3 6 4 4 7 9 5 6 3 3 2 6 6 4 5 8 8 9 9 10 10 10 11 11 11 10 10 10 10 11 12 11 10 9 9 8 8 8 7 8 7 5 4 4 6 7 6 6
2 2 5 3 3 5 6 6 4 4 5 4 0 2 3 1 5 2 2 3 6 7 7 7 8 10 8 9 8 8 9 9 10 10 10 10 10 11 11 11 11 11 11 11 11 10 8 8 9 9 9 10 9 9 7 7 7 5 3 3 3 3 4
5 4 6 2 5 3 4 5 5 7 6 3 1 5 6 8 7 5 1 1 4 6 10 9 8 9 10 10 10 11 10 11 10 10 11 11 12 11 12 12 11 12 13 13 13 12 11 10 9 8 8 10 8 7 8 7 5 4 6 4 3 4 5
3 5 6 2 2 4 1 9 8 3 3 2 1 4 6 5 6 8 7 5 5 10 10 10 8 9 10 10 11 11 11 11 11 12 11 11 12 12 11 11 13 13 13 13 13 12 11 12 10 10 12 12 10 10 10 8 5 6 8 8 8 7 7
4 4 4 1 3 2 4 4 1 5 3 4 4 3 5 5 5 6 7 8 9 11 11 10 9 10 10 10 11 11 11 11 11 12 13 13 13 13 12 12 12 14 13 13 13 13 11 12 13 11 11 12 11 12 12 7 7 8 9 9 9 9 10
4 2 4 4 2 1 2 1 5 6 7 4 3 4 5 6 6 6 8 11 11 11 11 11 10 9 9 11 10 10 10 10 10 10 11 13 13 12 12 12 12 12 12 13 13 13 12 12 11 10 10 11 13 15 10 8 9 9 9 8 8 10 10
4 5 4 4 4 4 6 5 4 8 7 6 7 9 8 6 8 8 10 12 12 11 10 10 9 9 11 11 11 11 10 10 9 9 10 10 10 10 10 10 11 11 12 12 13 13 12 12 10 9 9 11 14 10 8 9 9 8 9 9 9 11 11
4 2 3 3 5 4 4 6 5 6 7 8 7 9 9 9 9 10 10 11 12 12 11 10 10 11 10 11 10 10 9 10 10 10 10 10 10 10 10 10 9 9 10 11 12 12 12 11 10 10 11 11 11 9 7 7 8 8 8 8 8 7 8
2 4 6 4 4 3 4 4 6 7 9 9 9 8 9 10 10 10 10 11 11 11 12 11 12 12 11 11 10 10 10 10 9 10 10 10 10 10 10 10 10 11 11 10 10 10 10 9 10 10 11 11 10 8 6 6 5 6 5 7 7 8 9
5 5 5 6 5 5 5 4 4 6 8 10 10 10 10 11 11 11 10 9 11 11 12 12 12 12 11 10 10 11 9 9 9 9 9 10 10 10 10 10 10 10 10 11 11 11 10 9 10 10 10 10 10 9 7 6 6 6 7 7 6 8 8
6 5 8 11 6 6 6 6 8 9 9 10 11 11 10 10 10 9 10 10 11 12 12 11 11 12 11 11 10 11 10 10 10 10 9 9 10 9 9 9 10 10 10 11 11 10 9 8 8 9 10 9 9 8 7 6 5 6 6 6 7 6 6
1 7 11 9 2 6 8 8 8 9 9 9 10 11 11 11 10 10 11 12 12 12 12 11 11 11 11 11 10 11 10 9 9 9 10 9 8 8 9 9 9 10 10 10 10 10 9 8 8 8 8 8 8 8 7 6 6 6 6 6 6 6 5
4 5 11 6 4 7 10 10 9 8 8 9 10 10 10 11 11 11 11 11 12 11 11 11 10 10 10 10 10 10 9 8 8 8 9 9 9 8 8 8 8 9 9 9 9 9 8 8 8 8 8 8 7 7 6 6 5 6 5 5 5 6 6
5 8 9 5 8 11 10 10 8 7 7 8 9 10 11 11 11 10 11 10 10 11 10 10 10 8 9 10 10 9 8 8 7 8 8 8 7 8 8 8 8 8 7 7 6 7 7 7 8 7 8 7 7 7 6 6 6 6 6 5 6 6 5
Wind_Direction
220 216 214 218 233 238 174 218 215 238 272 236 253 254 256 280 252 262 185 221 218 139 174 103 236 209 174 179 187 190 194 201 204 192 187 192 187 186 186 192 191 191 189 188 189 187 187 186 184 185 183 183 185 182 184 186 189 189 191 193 195 194 194
197 249 225 227 200 243 230 224 219 189 260 274 247 267 235 240 245 209 198 272 198 209 135 206 164 196 168 173 176 185 193 198 200 193 188 193 190 184 184 188 190 190 189 188 190 190 188 187 187 185 184 186 185 188 186 187 190 192 191 193 196 194 194
36 230 227 202 206 214 236 273 49 203 194 209 210 260 247 241 228 257 213 209 162 355 130 179 126 149 168 172 166 170 188 199 203 192 189 195 195 186 185 186 185 189 188 188 189 189 188 188 189 187 184 187 186 190 191 191 193 194 194 193 195 197 196
356 281 219 213 180 194 256 318 240 233 272 220 203 216 305 287 237 342 211 182 104 12 13 357 351 6 185 184 173 178 182 193 198 196 193 195 198 190 187 188 187 187 189 189 188 189 188 187 188 189 186 187 190 190 191 196 193 195 198 199 192 199 198
215 218 223 235 188 181 189 210 220 223 216 30 286 268 251 265 233 179 304 270 135 85 353 332 333 306 257 201 188 180 180 181 191 195 195 192 192 191 190 190 189 186 188 191 190 189 188 188 188 188 187 187 193 189 191 195 195 196 197 201 196 199 202
209 220 262 291 265 219 213 205 177 241 206 182 207 209 201 207 209 236 24 298 39 32 341 335 324 331 265 210 195 184 178 179 186 197 201 185 180 185 189 189 191 189 188 193 188 186 188 185 189 192 188 186 190 189 188 196 193 200 200 201 199 198 205
320 117 197 219 283 152 49 100 244 244 215 207 220 236 163 166 104 61 220 251 231 360 342 338 339 339 305 209 188 184 176 177 178 178 173 166 166 176 190 195 192 192 188 193 188 184 185 184 187 189 187 184 186 186 185 190 195 195 201 206 201 197 202
103 113 79 277 179 110 138 277 242 200 219 84 284 337 323 232 150 357 283 253 45 335 10 349 355 27 45 117 168 167 169 173 169 160 164 168 174 176 192 198 195 195 189 189 186 182 183 182 184 185 184 181 181 182 182 185 195 192 197 202 203 195 201
240 158 137 160 151 166 194 199 143 301 25 265 272 232 250 262 192 199 250 261 89 48 350 32 15 37 60 82 126 160 169 175 168 153 158 170 173 177 183 193 200 195 194 186 185 179 179 182 183 182 181 181 181 180 181 185 191 192 195 198 202 196 200
229 216 210 220 211 175 163 85 102 78 356 266 273 223 204 243 138 344 286 307 52 107 62 36 29 49 69 69 83 114 155 168 174 172 169 163 177 173 187 199 202 199 193 182 180 178 180 183 181 180 183 182 183 182 186 187 186 190 195 193 201 196 201
279 280 31 178 257 216 209 89 78 119 153 280 243 271 237 217 276 238 236 272 125 198 86 32 20 41 44 63 63 65 109 162 172 176 174 170 174 175 188 192 201 193 189 184 182 182 182 187 183 183 183 185 185 186 190 188 186 186 188 191 194 196 199
168 226 240 74 272 225 107 162 114 118 139 165 234 237 223 171 3 280 296 168 272 82 69 45 30 22 44 39 39 55 68 91 201 165 166 172 177 180 184 191 192 190 190 190 190 189 188 189 190 185 187 188 188 190 190 190 185 183 184 189 191 193 197
156 171 160 174 195 231 201 197 157 117 132 168 220 249 248 219 212 248 58 315 30 95 68 59 54 15 48 48 44 49 60 102 144 177 165 171 175 175 180 185 192 192 193 190 195 198 198 200 199 192 190 193 193 191 193 190 185 185 182 184 189 191 195
181 184 184 227 324 290 213 159 87 82 104 125 220 230 277 265 259 274 283 258 99 79 80 55 54 46 52 61 59 64 59 56 39 30 150 165 163 162 173 171 175 183 191 187 191 191 198 200 204 202 205 204 202 202 195 191 188 184 182 186 188 191 196
214 209 209 248 280 325 55 109 86 58 33 55 66 300 252 279 264 257 261 234 163 87 86 101 74 65 73 70 69 64 62 74 80 69 66 86 95 94 95 103 120 116 110 111 123 154 183 199 200 206 207 203 202 201 208 204 200 192 191 189 192 195 198
255 237 250 246 260 216 78 89 63 54 50 87 22 324 5 337 301 309 259 220 176 140 133 90 82 76 65 63 64 71 71 85 94 101 80 72 78 79 82 84 84 78 74 70 71 63 45 331 238 219 215 211 206 202 199 195 184 191 206 215 212 206 203
305 283 253 288 270 197 221 127 46 25 95 77 359 2 315 346 23 344 256 243 113 130 128 109 102 93 80 67 62 73 74 65 91 108 94 77 66 71 74 78 84 84 83 69 60 57 58 40 3 319 263 224 223 215 204 195 190 191 192 201 211 217 215
203 219 230 246 255 247 326 85 73 33 26 19 328 348 345 334 340 234 277 221 122 122 119 110 105 88 78 72 66 61 68 85 73 82 104 101 79 77 79 66 63 78 80 83 59 70 70 35 17 349 298 273 243 232 223 201 195 199 197 197 201 203 204
278 170 242 259 257 175 284 94 73 60 59 39 346 353 349 321 303 9 295 132 110 101 92 94 91 87 77 69 66 59 63 73 77 75 66 73 81 70 68 69 53 50 51 59 48 33 42 43 27 3 282 256 241 224 222 217 209 204 199 201 201 196 199
275 261 232 267 6 55 172 105 123 89 111 116 243 164 97 248 299 76 280 117 110 107 107 103 97 92 81 67 49 50 54 55 69 70 68 70 66 65 59 54 48 49 47 45 24 10 334 275 268 253 19 347 296 238 225 223 217 214 211 211 203 200 198
284 314 289 2 172 207 195 192 180 237 320 38 50 90 359 329 351 49 287 133 115 111 111 111 109 104 91 66 49 44 48 58 63 67 63 65 70 75 74 70 60 44 47 38 24 342 316 274 256 256 347 311 3 3 281 231 219 213 210 208 202 196 189
270 282 272 230 226 239 152 84 93 92 108 100 115 112 246 252 16 9 324 96 129 127 136 137 140 137 90 68 50 39 51 61 73 72 71 62 59 58 66 71 67 59 55 46 41 33 41 55 40 31 9 298 219 284 318 318 245 191 184 174 166 179 182
252 260 275 280 289 81 173 131 116 117 131 130 156 191 185 84 80 9 336 298 85 76 104 161 166 170 104 86 59 49 65 65 69 75 68 65 61 59 54 54 55 58 62 58 49 50 49 44 46 62 69 90 113 109 74 246 248 214 192 165 162 129 115
237 271 264 288 22 59 107 115 132 116 117 175 192 356 336 40 87 114 329 304 305 9 322 348 206 207 136 125 101 83 76 75 74 72 69 64 62 61 64 62 60 56 53 53 48 48 48 44 44 53 67 76 71 53 36 18 19 30 74 91 91 128 175
189 252 277 287 121 105 110 88 115 140 167 232 25 36 91 115 82 78 343 63 359 346 1 43 69 51 86 106 115 106 95 86 79 74 72 70 68 69 70 72 73 68 66 66 66 64 65 70 75 74 72 72 69 69 69 60 27 17 43 68 98 104 100
249 245 260 286 99 63 70 104 118 150 196 176 19 62 118 138 142 159 237 82 64 72 65 66 80 100 106 112 108 100 93 88 87 85 84 83 81 78 77 78 79 80 75 73 71 70 70 74 76 84 93 90 86 81 76 68 61 48 47 58 128 142 156
267 254 260 242 253 101 296 120 128 206 280 41 36 108 102 107 142 144 149 140 125 103 100 107 113 106 105 104 99 97 96 92 92 93 91 90 89 86 83 79 79 81 78 69 64 67 70 73 75 80 82 81 77 74 71 71 70 64 72 71 62 61 71
279 251 257 2 27 106 150 232 229 141 61 116 143 138 115 123 137 143 132 130 125 119 121 121 118 115 113 109 107 102 95 95 95 94 96 95 94 93 89 89 87 84 82 79 75 65 58 65 71 68 70 72 67 65 61 52 56 62 69 72 70 69 67
294 5 36 91 121 107 123 91 104 103 127 131 123 132 133 138 133 143 135 129 131 130 130 128 130 124 114 107 102 97 93 91 87 85 86 90 90 86 85 86 90 91 92 91 88 80 70 67 70 74 73 74 69 66 58 46 58 67 75 77 77 75 73
108 70 47 109 112 109 115 106 115 129 135 133 133 132 133 132 140 144 132 136 132 133 134 129 121 114 114 110 106 104 101 95 88 87 87 85 86 86 87 87 87 90 91 91 90 90 87 80 72 69 74 78 77 75 65 58 58 57 61 64 69 73 74
215 129 169 148 117 140 124 119 130 116 128 129 136 129 128 135 140 136 137 136 139 136 134 123 120 116 112 103 99 96 95 91 87 85 82 80 80 80 80 79 81 80 82 84 84 83 81 83 87 86 81 76 75 69 68 71 67 59 65 68 69 73 76
268 93 130 123 116 114 133 144 140 140 133 129 128 122 127 131 136 135 134 136 134 135 127 127 123 118 113 111 110 106 101 98 94 89 87 86 85 81 80 82 84 86 85 85 84 81 81 80 79 80 81 86 96 103 102 98 100 94 84 85 83 82 79
109 114 138 141 146 142 144 142 137 136 136 128 124 123 124 124 128 129 130 132 130 131 123 128 126 120 114 109 107 102 102 101 98 94 93 90 87 85 80 76 78 80 80 80 79 80 79 75 74 73 73 76 79 84 86 87 89 95 98 105 112 109 106
196 188 164 170 175 167 153 150 143 140 135 129 125 125 125 127 127 131 129 127 126 129 132 131 128 123 123 121 118 111 107 107 108 107 102 99 96 92 88 85 83 81 79 81 81 79 76 74 74 75 75 73 70 71 72 80 86 90 95 97 95 94 101
56 122 152 181 359 113 131 141 142 140 138 135 136 133 136 137 136 137 134 129 130 132 134 131 125 124 125 124 122 118 114 109 108 109 110 108 106 103 100 95 88 84 84 83 82 78 75 73 71 69 67 66 69 69 65 68 78 86 85 84 88 93 97
96 133 148 163 169 130 133 139 142 142 144 141 133 130 132 133 137 139 135 136 134 131 131 130 127 127 129 129 123 115 116 117 112 107 104 103 101 103 101 97 94 90 85 81 78 80 81 80 78 73 69 61 58 65 68 72 73 78 85 88 84 89 96
124 134 136 138 121 118 122 131 132 130 139 140 135 133 135 134 135 134 131 130 133 131 130 128 130 133 130 126 123 124 123 121 114 104 101 99 98 99 101 99 97 96 91 85 81 77 77 79 79 76 72 65 58 58 57 62 76 74 73 82 91 93 94